Location: Narrabri
(30.3170°S, 149.7830°E)
Time: 01:04:07
(UTC+11:00)

Amateur Radio Satellites - All Passes

Search period start: 22 October 2017 00:34
Search period end: 23 October 2017 00:34
Location: Narrabri, 30.3170°S, 149.7830°E

Satellite Date Start Highest point End Downlink Frequencies (MHz)
Time Altitude Azimuth
POLYITAN 1 22 Oct 00:37:19 00:41:25 51° 280° (W) 00:45:34 437.675
Oscar 19 22 Oct 00:49:08 00:52:38 19° 113° (ESE) 00:56:09 437.125/150
QB50P2 22 Oct 00:58:23 01:01:53 25° 277° (W) 01:05:24 145.880/145.840
NANOSAT C BR1 22 Oct 01:00:23 01:04:05 30° 278° (W) 01:07:49 145.865
SPROUT 22 Oct 01:00:45 01:04:52 42° 81° (E) 01:08:55 437.525
LO-87 22 Oct 01:07:51 01:09:43 14° 250° (WSW) 01:11:35 145.935 - 145.965
DUCHIFAT 1 22 Oct 01:10:47 01:14:17 26° 277° (W) 01:17:50 145.980
SRMSAT 22 Oct 01:12:15 01:16:40 21° 347° (NNW) 01:21:03 437.500
BUGSAT 1 22 Oct 01:14:02 01:18:07 70° 104° (ESE) 01:22:11 437.445
Gurwin Techsat 1B 22 Oct 01:26:56 01:31:35 31° 109° (ESE) 01:36:16 435.225
BEESAT 2 22 Oct 01:30:02 01:33:10 23° 237° (WSW) 01:36:20 435.950
50 SAT 22 Oct 01:36:14 01:38:05 14° 84° (E) 01:39:55 437.505
UKube-1 22 Oct 01:45:14 01:45:47 10° 87° (E) 01:46:20 .
AO-85 22 Oct 01:45:16 01:50:08 35° 237° (WSW) 01:55:01 145.980
VELOX 1 22 Oct 01:52:50 01:57:15 66° 255° (WSW) 02:01:36 145.980
M-CUBED/EXP-1 PRIME 22 Oct 02:00:53 02:05:14 65° 285° (WNW) 02:09:52 437.505
Oscar 19 22 Oct 02:26:44 02:31:33 41° 279° (W) 02:36:27 437.125/150
SPROUT 22 Oct 02:38:37 02:40:18 12° 248° (WSW) 02:41:58 437.525
DX 1 22 Oct 02:55:55 03:00:12 54° 255° (WSW) 03:04:26 434.975-435.025
ITAMSAT 1 22 Oct 03:02:44 03:06:40 22° 112° (ESE) 03:10:36 435.822/435.867
Gurwin Techsat 1B 22 Oct 03:07:07 03:11:26 25° 277° (W) 03:15:47 435.225
50 SAT 22 Oct 03:07:56 03:10:16 18° 252° (WSW) 03:12:35 437.505
AO-7 22 Oct 03:08:49 03:16:48 51° 113° (ESE) 03:24:51 .
ITUPSAT 1 22 Oct 03:14:03 03:16:27 14° 86° (E) 03:18:51 437.325
UKube-1 22 Oct 03:17:47 03:21:59 48° 254° (WSW) 03:26:08 .
SO-50 22 Oct 03:21:06 03:24:26 19° 127° (SE) 03:27:42 436.795
BEESAT 22 Oct 03:27:48 03:31:23 21° 84° (E) 03:34:57 436.000
MOZHAYETS 4 22 Oct 04:09:54 04:14:36 78° 78° (ENE) 04:19:15
CUBESAT XI-V 22 Oct 04:24:56 04:28:31 21° 85° (E) 04:32:02 437.345
ITAMSAT 1 22 Oct 04:41:05 04:45:49 35° 279° (W) 04:50:36 435.822/435.867
nSIGHT-1 22 Oct 04:44:23 04:47:12 26° 140° (SE) 04:50:00 .
ITUPSAT 1 22 Oct 04:49:48 04:54:25 45° 253° (WSW) 04:59:00 437.325
DOVE 4 22 Oct 05:00:13 05:05:09 41° 106° (ESE) 05:10:00 437.250
SO-50 22 Oct 05:00:43 05:04:59 36° 292° (WNW) 05:09:09 436.795
AO-7 22 Oct 05:02:44 05:09:39 29° 278° (W) 05:16:40 .
BEESAT 22 Oct 05:04:54 05:09:06 30° 251° (WSW) 05:13:16 436.000
ISS 22 Oct 05:19:47 05:23:04 56° 136° (SE) 05:26:18 437.550
CUTE-I 22 Oct 05:21:15 05:23:46 13° 115° (ESE) 05:26:17 437.470
XW-2D 22 Oct 05:23:36 05:24:35 11° 111° (ESE) 05:25:34 145.860 - 145.880
KKS-1 22 Oct 05:29:29 05:33:19 27° 82° (E) 05:37:06 437.445
XW-2B 22 Oct 05:35:42 05:37:59 15° 110° (ESE) 05:40:17 145.730 - 145.750
HO-68 22 Oct 05:44:53 05:47:41 13° 121° (ESE) 05:50:29 435.675
PCSat 22 Oct 05:55:21 06:00:44 59° 117° (ESE) 06:06:03 145.827
XW-2C 22 Oct 05:57:47 06:01:09 31° 106° (ESE) 06:04:34 145.795 - 145.815
STARS 22 Oct 05:59:12 06:02:40 22° 83° (E) 06:06:05 437.465
CUBESAT XI-V 22 Oct 06:01:42 06:05:48 29° 252° (WSW) 06:09:50 437.345
nSIGHT-1 22 Oct 06:20:57 06:23:20 19° 307° (NW) 06:25:41 .
KAITUO 1B 22 Oct 06:37:15 06:40:59 81° 100° (E) 06:44:49 145.475/437.950
DOVE 4 22 Oct 06:39:09 06:42:49 19° 275° (W) 06:46:28 437.250
XW-2F 22 Oct 06:41:10 06:44:54 65° 281° (W) 06:48:43 145.980 - 146.000
LilacSat-2 22 Oct 06:49:07 06:52:44 42° 279° (W) 06:56:25 437.200
NUDT-PHONESAT 22 Oct 06:49:29 06:53:09 69° 281° (W) 06:56:54 437.300
CUBEBUG 2 22 Oct 06:51:41 06:54:02 15° 110° (ESE) 06:56:23 437.445
XW-2D 22 Oct 06:54:50 06:58:19 36° 279° (W) 07:01:54 145.860 - 145.880
CUTE-I 22 Oct 06:57:53 07:03:11 62° 282° (WNW) 07:08:34 437.470
KKS-1 22 Oct 07:06:24 07:09:37 20° 249° (WSW) 07:12:50 437.445
XW-2B 22 Oct 07:08:43 07:11:52 25° 277° (W) 07:15:06 145.730 - 145.750
CUTE 1.7 + AOD 2 22 Oct 07:12:26 07:16:34 52° 105° (ESE) 07:20:47 437.475
SEEDS 22 Oct 07:17:28 07:21:18 34° 106° (ESE) 07:25:12 437.485
STRAND 1 22 Oct 07:22:10 07:25:17 16° 85° (E) 07:28:24 437.568
O/OREOS (USA 219) 22 Oct 07:25:17 07:27:07 12° 81° (E) 07:28:58 437.305
UWE-3 22 Oct 07:26:14 07:29:21 20° 109° (ESE) 07:32:27 435.000/436.395/437.385
HO-68 22 Oct 07:27:08 07:34:20 86° 106° (ESE) 07:41:36 435.675
XW-2C 22 Oct 07:33:51 07:35:21 12° 274° (W) 07:36:52 145.795 - 145.815
STARS 22 Oct 07:35:21 07:38:51 23° 251° (WSW) 07:42:20 437.465
AAUSAT CUBESAT 2 22 Oct 07:38:03 07:41:26 24° 108° (ESE) 07:44:53 437.432
PCSat 22 Oct 07:41:04 07:43:31 13° 283° (WNW) 07:45:58 145.827
YUBILEINY 22 Oct 07:57:31 08:04:39 27° 106° (ESE) 08:11:41 435.215
XW-2A 22 Oct 08:03:31 08:06:51 80° 103° (ESE) 08:10:16 145.665 - 145.685
AO-73 22 Oct 08:13:24 08:17:07 33° 106° (ESE) 08:20:54 145.935
CUBEBUG 2 22 Oct 08:26:29 08:30:20 33° 278° (W) 08:34:10 437.445
BEESAT 3 22 Oct 08:29:41 08:31:20 12° 127° (SE) 08:32:57 437.485
FO-29 22 Oct 08:34:32 08:36:26 12° 90° (E) 08:38:17 435.910
ZACube-1 22 Oct 08:35:49 08:39:57 79° 103° (ESE) 08:44:09 437.345
SEEDS 22 Oct 08:54:46 08:57:01 14° 274° (W) 08:59:18 437.485
DELFI C3 22 Oct 08:55:34 08:57:22 13° 111° (ESE) 08:59:10 145.870
STRAND 1 22 Oct 08:59:43 09:04:35 44° 253° (WSW) 09:09:25 437.568
O/OREOS (USA 219) 22 Oct 09:01:45 09:06:03 43° 249° (WSW) 09:10:24 437.305
UWE-3 22 Oct 09:02:18 09:05:37 23° 276° (W) 09:08:57 435.000/436.395/437.385
Oscar 11 22 Oct 09:10:08 09:14:26 67° 281° (W) 09:18:48 .
AAUSAT CUBESAT 2 22 Oct 09:13:44 09:16:46 19° 275° (W) 09:19:52 437.432
HO-68 22 Oct 09:20:05 09:22:39 12° 272° (W) 09:25:13 435.675
EO-88 22 Oct 09:20:24 09:21:34 11° 111° (ESE) 09:22:43 145.990 - 145.960
Max Valier Satellite 22 Oct 09:31:21 09:34:18 23° 107° (ESE) 09:37:17 145.860
AO-73 22 Oct 09:51:22 09:53:25 13° 274° (W) 09:55:28 145.935
BEESAT 2 22 Oct 09:52:04 09:55:30 29° 122° (ESE) 09:58:56 435.950
YUBILEINY 22 Oct 09:53:16 10:01:40 52° 270° (W) 10:09:59 435.215
BEESAT 3 22 Oct 10:05:21 10:08:59 40° 293° (WNW) 10:12:39 437.485
UNISAT 6 22 Oct 10:07:58 10:11:43 26° 83° (E) 10:15:30 437.425
FO-29 22 Oct 10:16:22 10:22:06 60° 254° (WSW) 10:27:17 435.910
TIGRISAT 22 Oct 10:22:05 10:26:10 35° 81° (E) 10:30:18 435.000
AO-85 22 Oct 10:22:41 10:27:06 46° 121° (ESE) 10:31:09 145.980
DELFI C3 22 Oct 10:28:01 10:31:42 35° 278° (W) 10:35:27 145.870
PRISM 22 Oct 10:47:41 10:51:16 28° 82° (E) 10:54:49 437.425
EO-88 22 Oct 10:51:32 10:54:49 32° 278° (W) 10:58:10 145.990 - 145.960
Max Valier Satellite 22 Oct 11:05:55 11:08:02 15° 275° (W) 11:10:12 145.860
AIST 2D 22 Oct 11:11:42 11:12:17 10° 87° (E) 11:12:51 435.315
ESTCUBE 1 22 Oct 11:24:26 11:28:40 41° 106° (ESE) 11:32:59 437.505/2401.250
BEESAT 2 22 Oct 11:30:40 11:32:55 15° 289° (WNW) 11:35:11 435.950
LO-87 22 Oct 11:36:04 11:39:40 88° 284° (WNW) 11:43:17 145.935 - 145.965
UNISAT 6 22 Oct 11:44:53 11:48:14 21° 251° (WSW) 11:51:35 437.425
SPROUT 22 Oct 11:49:26 11:52:04 16° 111° (ESE) 11:54:42 437.525
TIGRISAT 22 Oct 11:59:51 12:02:31 16° 250° (WSW) 12:05:13 435.000
AO-85 22 Oct 12:05:39 12:06:52 11° 285° (WNW) 12:08:06 145.980
RS-15 22 Oct 12:06:17 12:16:54 58° 69° (ENE) 12:27:27 29.354- 29.394
EO-79 22 Oct 12:22:40 12:26:31 32° 82° (E) 12:30:20 145.935-145.965
PRISM 22 Oct 12:23:40 12:26:15 16° 249° (WSW) 12:28:47 437.425
POLYITAN 1 22 Oct 12:27:42 12:31:42 37° 81° (E) 12:35:39 437.675
AIST 2D 22 Oct 12:42:16 12:45:29 31° 254° (WSW) 12:48:40 435.315
VELOX 1 22 Oct 12:43:48 12:48:08 51° 105° (ESE) 12:52:31 145.980
QB50P2 22 Oct 12:47:52 12:52:10 80° 78° (ENE) 12:56:25 145.880/145.840
NANOSAT C BR1 22 Oct 12:49:33 12:53:47 64° 79° (E) 12:57:59 145.865
DUCHIFAT 1 22 Oct 12:59:24 13:03:39 74° 80° (E) 13:07:52 145.980
BUGSAT 1 22 Oct 13:02:32 13:05:01 15° 85° (E) 13:07:28 437.445
ESTCUBE 1 22 Oct 13:03:19 13:05:35 14° 274° (W) 13:07:52 437.505/2401.250
SPROUT 22 Oct 13:23:49 13:27:38 31° 278° (W) 13:31:28 437.525
50 SAT 22 Oct 13:29:40 13:32:49 42° 105° (ESE) 13:35:59 437.505
NO-84 22 Oct 13:30:16 13:31:44 13° 58° (ENE) 13:33:10 435.350 FM
DX 1 22 Oct 13:45:06 13:49:26 60° 105° (ESE) 13:53:49 434.975-435.025
M-CUBED/EXP-1 PRIME 22 Oct 13:46:58 13:49:18 15° 83° (E) 13:51:30 437.505
Gurwin Techsat 1B 22 Oct 13:49:32 13:53:22 20° 85° (E) 13:57:09 435.225
EO-79 22 Oct 13:59:25 14:01:56 15° 249° (WSW) 14:04:27 145.935-145.965
POLYITAN 1 22 Oct 14:04:57 14:07:04 14° 249° (WSW) 14:09:12 437.675
UKube-1 22 Oct 14:05:50 14:10:07 64° 104° (ESE) 14:14:28 .
RS-15 22 Oct 14:20:02 14:29:35 34° 230° (SW) 14:39:15 29.354- 29.394
VELOX 1 22 Oct 14:24:04 14:24:47 10° 273° (W) 14:25:28 145.980
BEESAT 22 Oct 14:29:59 14:32:10 13° 114° (ESE) 14:34:21 436.000
BUGSAT 1 22 Oct 14:36:46 14:40:20 29° 253° (WSW) 14:43:53 437.445
Oscar 19 22 Oct 14:43:44 14:49:00 73° 255° (WSW) 14:54:11 437.125/150
MOZHAYETS 4 22 Oct 15:06:01 15:10:11 36° 107° (ESE) 15:14:25
NO-84 22 Oct 15:06:26 15:08:47 22° 225° (SW) 15:11:09 435.350 FM
AO-7 22 Oct 15:18:12 15:24:30 23° 83° (E) 15:30:42 .
M-CUBED/EXP-1 PRIME 22 Oct 15:19:58 15:23:46 32° 247° (WSW) 15:27:17 437.505
ITAMSAT 1 22 Oct 15:23:05 15:24:42 11° 87° (E) 15:26:18 435.822/435.867
CUBESAT XI-V 22 Oct 15:24:41 15:26:00 11° 114° (ESE) 15:27:19 437.345
Gurwin Techsat 1B 22 Oct 15:28:23 15:33:21 39° 252° (WSW) 15:38:15 435.225
ITUPSAT 1 22 Oct 15:50:14 15:55:00 77° 283° (WNW) 15:59:49 437.325
BEESAT 22 Oct 16:04:48 16:09:25 50° 280° (W) 16:14:06 436.000
KKS-1 22 Oct 16:23:19 16:25:32 14° 113° (ESE) 16:27:44 437.445
MOZHAYETS 4 22 Oct 16:44:42 16:47:24 15° 274° (W) 16:50:07
STARS 22 Oct 16:52:52 16:53:33 10° 114° (ESE) 16:54:11 437.465
CUBESAT XI-V 22 Oct 16:58:11 17:02:46 57° 280° (W) 17:07:27 437.345
ITAMSAT 1 22 Oct 16:59:18 17:04:27 61° 254° (WSW) 17:09:33 435.822/435.867
JUGNU 22 Oct 17:06:43 17:11:02 21° 13° (NNE) 17:15:23 437.505
DOVE 4 22 Oct 17:07:01 17:09:12 14° 87° (E) 17:11:20 437.250
AO-7 22 Oct 17:09:18 17:17:34 62° 249° (WSW) 17:25:43 .
SO-50 22 Oct 17:29:25 17:33:03 22° 70° (ENE) 17:36:44 436.795
O/OREOS (USA 219) 22 Oct 17:41:35 17:42:01 10° 120° (ESE) 17:42:27 437.305
KKS-1 22 Oct 17:57:22 18:01:38 43° 279° (W) 18:05:56 437.445
KAITUO 1B 22 Oct 18:15:45 18:17:23 12° 86° (E) 18:19:00 145.475/437.950
XW-2F 22 Oct 18:19:32 18:22:21 19° 84° (E) 18:25:08 145.980 - 146.000
STARS 22 Oct 18:25:00 18:29:19 55° 281° (W) 18:33:41 437.465
NUDT-PHONESAT 22 Oct 18:26:10 18:28:39 16° 85° (E) 18:31:05 437.300
LilacSat-2 22 Oct 18:27:58 18:31:26 29° 83° (E) 18:34:52 437.200
XW-2D 22 Oct 18:32:44 18:36:17 32° 82° (E) 18:39:46 145.860 - 145.880
STRAND 1 22 Oct 18:33:24 18:35:51 14° 114° (ESE) 18:38:18 437.568
DOVE 4 22 Oct 18:43:04 18:47:01 34° 253° (WSW) 18:50:47 437.250
XW-2B 22 Oct 18:46:03 18:49:50 47° 81° (E) 18:53:34 145.730 - 145.750
PCSat 22 Oct 18:49:57 18:53:22 17° 75° (ENE) 18:56:49 145.827
JUGNU 22 Oct 18:54:27 18:59:33 29° 3° (N) 19:04:40 437.505
HO-68 22 Oct 19:02:34 19:07:59 23° 84° (E) 19:13:20 435.675
CUTE 1.7 + AOD 2 22 Oct 19:04:25 19:06:50 15° 86° (E) 19:09:13 437.475
SO-50 22 Oct 19:09:01 19:13:17 32° 237° (WSW) 19:17:37 436.795
XW-2C 22 Oct 19:09:18 19:13:13 76° 257° (WSW) 19:17:03 145.795 - 145.815
O/OREOS (USA 219) 22 Oct 19:17:17 19:21:45 58° 286° (WNW) 19:26:10 437.305
CUTE-I 22 Oct 19:20:46 19:26:09 88° 79° (E) 19:31:28 437.470
SRMSAT 22 Oct 19:33:37 19:37:37 18° 15° (NNE) 19:41:37 437.500
nSIGHT-1 22 Oct 19:43:49 19:44:48 11° 55° (NE) 19:45:47 .
KAITUO 1B 22 Oct 19:47:58 19:51:23 30° 254° (WSW) 19:54:45 145.475/437.950
XW-2F 22 Oct 19:53:22 19:56:18 21° 252° (WSW) 19:59:12 145.980 - 146.000
NUDT-PHONESAT 22 Oct 19:59:22 20:02:24 23° 252° (WSW) 20:05:24 437.300
LilacSat-2 22 Oct 20:03:17 20:05:22 14° 250° (WSW) 20:07:27 437.200
XW-2D 22 Oct 20:08:21 20:10:04 13° 249° (WSW) 20:11:46 145.860 - 145.880
AO-73 22 Oct 20:08:54 20:10:08 11° 87° (E) 20:11:22 145.935
STRAND 1 22 Oct 20:09:27 20:14:28 56° 281° (W) 20:19:33 437.568
ISS 22 Oct 20:19:24 20:22:13 26° 52° (NE) 20:25:04 437.550
FO-29 22 Oct 20:19:55 20:26:52 36° 110° (ESE) 20:33:33 435.910
CUBEBUG 2 22 Oct 20:21:53 20:26:17 75° 78° (ENE) 20:30:46 437.445
ZACube-1 22 Oct 20:29:55 20:33:34 24° 83° (E) 20:37:14 437.345
PCSat 22 Oct 20:31:08 20:36:18 46° 242° (WSW) 20:41:33 145.827
CUTE 1.7 + AOD 2 22 Oct 20:38:46 20:42:41 34° 253° (WSW) 20:46:34 437.475
SEEDS 22 Oct 20:41:59 20:46:11 53° 256° (WSW) 20:50:18 437.485
JUGNU 22 Oct 20:43:07 20:48:06 27° 353° (N) 20:53:07 437.505
HO-68 22 Oct 20:48:56 20:55:53 53° 251° (WSW) 21:02:46 435.675
YUBILEINY 22 Oct 20:50:35 20:58:28 38° 93° (E) 21:06:24 435.215
UWE-3 22 Oct 20:55:57 21:00:23 78° 257° (WSW) 21:04:54 435.000/436.395/437.385
AAUSAT CUBESAT 2 22 Oct 21:00:04 21:04:18 81° 257° (WSW) 21:08:27 437.432
XW-2A 22 Oct 21:03:07 21:06:24 39° 255° (WSW) 21:09:39 145.665 - 145.685
Oscar 11 22 Oct 21:03:14 21:07:16 34° 82° (E) 21:11:14 .
UNISAT 6 22 Oct 21:03:29 21:04:51 11° 112° (ESE) 21:06:13 437.425
RS-15 22 Oct 21:14:19 21:24:51 40° 127° (SE) 21:35:45 29.354- 29.394
TIGRISAT 22 Oct 21:16:31 21:19:01 15° 111° (ESE) 21:21:30 435.000
nSIGHT-1 22 Oct 21:17:37 21:20:44 42° 223° (SW) 21:23:53 .
SRMSAT 22 Oct 21:21:13 21:26:17 28° 6° (N) 21:31:21 437.500
PRISM 22 Oct 21:34:06 21:34:35 10° 113° (ESE) 21:35:04 437.425
AO-73 22 Oct 21:42:11 21:46:30 49° 255° (WSW) 21:50:50 145.935
NO-84 22 Oct 21:44:01 21:45:25 12° 139° (SE) 21:46:53 435.350 FM
ISS 22 Oct 21:56:04 21:58:40 21° 218° (SW) 22:01:17 437.550
FO-29 22 Oct 22:04:20 22:11:37 40° 278° (W) 22:18:41 435.910
ZACube-1 22 Oct 22:06:09 22:09:39 23° 252° (WSW) 22:13:11 437.345
DELFI C3 22 Oct 22:10:15 22:14:02 40° 81° (E) 22:17:45 145.870
EO-88 22 Oct 22:25:31 22:28:49 29° 82° (E) 22:32:04 145.990 - 145.960
JUGNU 22 Oct 22:32:51 22:36:36 17° 344° (NNW) 22:40:22 437.505
UNISAT 6 22 Oct 22:36:56 22:41:06 45° 280° (W) 22:45:16 437.425
Max Valier Satellite 22 Oct 22:39:26 22:43:13 74° 79° (E) 22:46:58 145.860
Oscar 11 22 Oct 22:40:24 22:43:02 16° 249° (WSW) 22:45:39 .
YUBILEINY 22 Oct 22:47:02 22:55:04 38° 257° (WSW) 23:03:10 435.215
TIGRISAT 22 Oct 22:51:27 22:55:23 33° 278° (W) 22:59:18 435.000
PRISM 22 Oct 23:05:16 23:09:19 49° 280° (W) 23:13:26 437.425
SRMSAT 22 Oct 23:09:53 23:15:01 29° 356° (N) 23:20:06 437.500
AIST 2D 22 Oct 23:10:20 23:13:29 32° 105° (ESE) 23:16:42 435.315
LO-87 22 Oct 23:10:45 23:11:39 11° 86° (E) 23:12:33 145.935 - 145.965
EO-79 22 Oct 23:11:21 23:12:58 12° 112° (ESE) 23:14:36 145.935-145.965
POLYITAN 1 22 Oct 23:16:03 23:18:14 14° 111° (ESE) 23:20:24 437.675
NO-84 22 Oct 23:19:24 23:22:55 56° 308° (NW) 23:26:42 435.350 FM
ESTCUBE 1 22 Oct 23:24:09 23:26:31 14° 86° (E) 23:28:52 437.505/2401.250
RS-15 22 Oct 23:26:25 23:37:24 53° 290° (WNW) 23:48:52 29.354- 29.394
QB50P2 22 Oct 23:34:57 23:38:30 27° 108° (ESE) 23:42:05 145.880/145.840
NANOSAT C BR1 22 Oct 23:36:24 23:39:38 22° 109° (ESE) 23:42:53 145.865
BEESAT 2 22 Oct 23:38:11 23:41:03 20° 70° (ENE) 23:43:56 435.950
DUCHIFAT 1 22 Oct 23:45:46 23:49:10 24° 108° (ESE) 23:52:36 145.980
DELFI C3 22 Oct 23:47:27 23:48:19 11° 248° (WSW) 23:49:11 145.870
BEESAT 3 22 Oct 23:49:02 23:52:47 61° 241° (WSW) 23:56:31 437.485
EO-88 23 Oct 00:00:33 00:02:06 12° 250° (WSW) 00:03:39 145.990 - 145.960
